KI4TXI Weather Reports


Display with metric or nautical units.
time (UTC)temp
F
wind
direction
speed
MPH
gust
MPH
rain 1hr
in
rain 24hr
in
rain mn
in
humidity
%
barometer
mb
20180222085448 62 28 0.0 0.0 0.00 0.00 0.00 96 1034.5
20180222084947 62 28 0.0 0.0 0.00 0.00 0.00 96 1034.6
20180222084448 62 28 0.0 0.0 0.00 0.00 0.00 96 1034.7
20180222083947 62 28 0.0 0.0 0.00 0.00 0.00 96 1034.7
20180222083446 62 28 0.0 0.0 0.00 0.00 0.00 96 1034.6
20180222082945 62 28 0.0 0.0 0.00 0.00 0.00 96 1034.6
20180222082443 63 28 0.0 0.0 0.00 0.00 0.00 96 1034.6
20180222081942 63 28 0.0 0.0 0.00 0.00 0.00 96 1034.6
20180222081442 63 28 0.0 0.0 0.00 0.00 0.00 96 1034.6
20180222080940 63 28 0.0 0.0 0.00 0.00 0.00 96 1034.7
20180222080441 63 28 0.0 0.0 0.00 0.00 0.00 96 1034.7
20180222075939 63 28 0.0 0.0 0.00 0.00 0.00 96 1034.7
20180222075443 63 28 0.0 0.0 0.00 0.00 0.00 95 1034.7
20180222074942 63 28 0.0 0.0 0.00 0.00 0.00 95 1034.8
20180222074441 64 28 0.0 0.0 0.00 0.00 0.00 95 1034.7
20180222073941 64 28 0.0 0.0 0.00 0.00 0.00 95 1034.7
20180222073458 64 28 0.0 0.0 0.00 0.00 0.00 95 1034.8
20180222072957 64 28 0.0 0.0 0.00 0.00 0.00 95 1034.9
20180222072457 64 28 0.0 0.0 0.00 0.00 0.00 95 1034.8
20180222071956 64 28 0.0 0.0 0.00 0.00 0.00 95 1034.8
20180222071457 65 28 0.0 0.0 0.00 0.00 0.00 94 1034.9
20180222070955 65 28 0.0 0.0 0.00 0.00 0.00 94 1034.9
20180222070454 65 28 0.0 0.0 0.00 0.00 0.00 95 1034.8
20180222065954 65 28 0.0 0.0 0.00 0.00 0.00 95 1034.8
20180222065453 65 28 0.0 0.0 0.00 0.00 0.00 96 1034.9
20180222064953 65 28 0.0 0.0 0.00 0.00 0.00 94 1034.8
20180222064456 66 28 0.0 0.0 0.00 0.00 0.00 94 1034.8
20180222063956 66 28 0.0 0.0 0.00 0.00 0.00 93 1034.8
20180222063456 66 28 0.0 0.0 0.00 0.00 0.00 93 1034.7
20180222062956 66 28 0.0 0.0 0.00 0.00 0.00 92 1034.7
20180222062455 67 28 0.0 0.0 0.00 0.00 0.00 92 1034.6
20180222061952 67 28 0.0 0.0 0.00 0.00 0.00 92 1034.7
20180222061451 67 28 0.0 0.0 0.00 0.00 0.00 91 1034.6
20180222060950 68 28 0.0 0.0 0.00 0.00 0.00 90 1034.5
20180222060448 68 28 0.0 0.0 0.00 0.00 0.00 90 1034.5
20180222055945 68 28 0.0 0.0 0.00 0.00 0.00 90 1034.5
20180222055445 69 28 0.0 0.0 0.00 0.00 0.00 90 1034.6
20180222054944 69 28 0.0 0.0 0.00 0.00 0.00 90 1034.7
20180222054444 69 28 0.0 0.0 0.00 0.00 0.00 90 1034.7
20180222053947 69 28 0.0 0.0 0.00 0.00 0.00 89 1034.6
20180222053446 70 28 0.0 0.0 0.00 0.00 0.00 88 1034.7
20180222052945 70 28 0.0 0.0 0.00 0.00 0.00 88 1034.7
20180222052444 70 28 0.0 0.0 0.00 0.00 0.00 87 1034.7
20180222051942 70 28 0.0 0.0 0.00 0.00 0.00 87 1034.8
20180222051442 71 28 0.0 0.0 0.00 0.00 0.00 87 1034.7
20180222050941 71 28 0.0 0.0 0.00 0.00 0.00 87 1034.8
20180222050439 71 28 0.0 0.0 0.00 0.00 0.00 86 1034.6
20180222045958 71 28 0.0 0.0 0.00 0.00 0.00 86 1034.6
20180222045458 72 28 0.0 0.0 0.00 0.00 0.00 86 1034.6
20180222044957 72 26 0.0 4.0 0.00 0.00 0.00 86 1034.6
20180222044455 72 26 0.0 4.0 0.00 0.00 0.00 85 1034.6
20180222043955 72 53 0.0 1.0 0.00 0.00 0.00 85 1034.5
20180222043453 72 78 0.0 1.0 0.00 0.00 0.00 85 1034.5
20180222042957 72 61 0.0 1.0 0.00 0.00 0.00 84 1034.5
20180222042455 72 53 0.0 1.0 0.00 0.00 0.00 84 1034.4
20180222041955 73 80 0.0 1.0 0.00 0.00 0.00 84 1034.4
20180222041454 73 55 0.0 5.0 0.00 0.00 0.00 83 1034.4
20180222040954 73 85 0.0 5.0 0.00 0.00 0.00 82 1034.4
20180222040454 73 55 0.0 9.0 0.00 0.00 0.00 82 1034.4
20180222035952 73 14 0.0 9.0 0.00 0.00 0.00 82 1034.4
20180222035452 73 27 3.0 11.0 0.00 0.00 0.00 82 1034.3
20180222034951 73 34 0.0 11.0 0.00 0.00 0.00 82 1034.4
20180222034451 73 24 0.0 6.0 0.00 0.00 0.00 82 1034.4
20180222033947 73 66 1.0 7.0 0.00 0.00 0.00 82 1034.4
20180222033445 73 17 0.0 7.0 0.00 0.00 0.00 82 1034.5
20180222032945 73 38 0.0 8.0 0.00 0.00 0.00 82 1034.5
20180222032448 73 34 5.0 8.0 0.00 0.00 0.00 81 1034.4
20180222031948 73 360 0.0 8.0 0.00 0.00 0.00 81 1034.5
20180222031446 73 26 0.0 7.0 0.00 0.00 0.00 81 1034.4
20180222030946 73 35 0.0 8.0 0.00 0.00 0.00 81 1034.4
20180222030445 73 30 5.0 8.0 0.00 0.00 0.00 82 1034.4
20180222025946 72 13 0.0 7.0 0.00 0.00 0.00 82 1034.3
20180222025445 72 355 1.0 7.0 0.00 0.00 0.00 82 1034.3
20180222024943 72 15 0.0 6.0 0.00 0.00 0.00 83 1034.1
20180222024443 72 22 0.0 6.0 0.00 0.00 0.00 83 1034.1
20180222024002 72 22 2.0 6.0 0.00 0.00 0.00 83 1034.2
20180222023453 71 17 0.0 5.0 0.00 0.00 0.00 83 1034.2
20180222022953 71 355 0.0 6.0 0.00 0.00 0.00 84 1034.2
20180222022452 71 12 2.0 6.0 0.00 0.00 0.00 83 1034.2
20180222021951 72 36 0.0 0.0 0.00 0.00 0.00 82 1034.1
20180222021452 72 36 0.0 0.0 0.00 0.00 0.00 81 1034.2
20180222020952 72 36 0.0 0.0 0.00 0.00 0.00 81 1034.2
20180222020448 73 36 0.0 0.0 0.00 0.00 0.00 80 1034.2
20180222015948 73 36 0.0 0.0 0.00 0.00 0.00 80 1034.1
20180222015447 74 36 0.0 0.0 0.00 0.00 0.00 79 1034.1
20180222014945 74 36 0.0 0.0 0.00 0.00 0.00 79 1034.1
20180222014444 74 36 0.0 1.0 0.00 0.00 0.00 79 1034.0
20180222013945 74 36 0.0 2.0 0.00 0.00 0.00 79 1033.9
20180222013443 73 36 0.0 2.0 0.00 0.00 0.00 80 1033.9
20180222012943 73 346 0.0 0.0 0.00 0.00 0.00 79 1033.9
20180222012443 73 346 0.0 0.0 0.00 0.00 0.00 79 1033.8
20180222011942 74 346 0.0 0.0 0.00 0.00 0.00 78 1033.9
20180222011442 74 346 0.0 0.0 0.00 0.00 0.00 77 1033.8
20180222010944 74 346 0.0 0.0 0.00 0.00 0.00 76 1033.6
20180222010443 75 346 0.0 0.0 0.00 0.00 0.00 76 1033.6
20180222005944 75 346 0.0 0.0 0.00 0.00 0.00 75 1033.4
20180222005441 76 346 0.0 0.0 0.00 0.00 0.00 74 1033.4
20180222004940 76 346 0.0 0.0 0.00 0.00 0.00 73 1033.4
20180222004439 76 346 0.0 0.0 0.00 0.00 0.00 73 1033.4
20180222003938 77 346 0.0 0.0 0.00 0.00 0.00 72 1033.4
20180222003438 77 346 0.0 0.0 0.00 0.00 0.00 72 1033.3
20180222002958 77 346 0.0 2.0 0.00 0.00 0.00 71 1033.2
20180222002458 78 346 0.0 2.0 0.00 0.02 0.00 71 1033.2
20180222001957 78 346 0.0 0.0 0.00 0.02 0.00 71 1033.3
20180222001457 78 10 0.0 0.0 0.00 0.02 0.00 70 1033.1
20180222000957 78 11 0.0 0.0 0.00 0.02 0.00 70 1033.0
20180222000444 78 11 0.0 0.0 0.00 0.02 0.00 69 1033.0
20180221235940 79 15 0.0 4.0 0.00 0.02 0.00 69 1032.9
20180221235440 79 15 0.0 4.0 0.00 0.02 0.00 68 1033.0
20180221234959 79 339 0.0 5.0 0.00 0.02 0.00 68 1032.8
20180221234458 79 36 0.0 5.0 0.00 0.02 0.00 67 1032.9
20180221233957 80 360 0.0 6.0 0.00 0.02 0.00 67 1032.9
20180221233455 80 340 0.0 7.0 0.00 0.02 0.00 67 1032.9
20180221232954 80 29 1.0 8.0 0.00 0.02 0.00 66 1033.0
20180221232452 80 49 2.0 4.0 0.00 0.02 0.00 66 1033.0
20180221231952 81 355 0.0 0.0 0.00 0.02 0.00 66 1032.8
20180221231453 81 25 0.0 2.0 0.00 0.02 0.00 66 1032.7
20180221230951 81 341 0.0 8.0 0.00 0.02 0.00 65 1032.5
20180221230450 81 5 4.0 8.0 0.00 0.02 0.00 65 1032.6
20180221225948 81 10 0.0 7.0 0.00 0.02 0.00 65 1032.5
20180221225452 81 33 2.0 7.0 0.00 0.02 0.00 65 1032.5
20180221224951 82 350 0.0 11.0 0.00 0.02 0.00 64 1032.5
20180221224450 82 31 2.0 11.0 0.00 0.02 0.00 64 1032.4
20180221223948 82 20 9.0 10.0 0.00 0.02 0.00 63 1032.4
20180221223449 82 9 7.0 9.0 0.00 0.02 0.00 64 1032.4
20180221222948 82 336 0.0 6.0 0.00 0.02 0.00 64 1032.4
20180221222447 82 31 0.0 6.0 0.00 0.02 0.00 64 1032.5
20180221221947 82 24 0.0 11.0 0.00 0.02 0.00 63 1032.6
20180221221446 82 51 5.0 11.0 0.00 0.02 0.00 62 1032.4
20180221220945 83 16 0.0 10.0 0.00 0.02 0.00 62 1032.4
20180221220445 83 37 1.0 8.0 0.00 0.02 0.00 62 1032.5
20180221215945 83 19 4.0 8.0 0.00 0.02 0.00 62 1032.5
20180221215444 83 360 0.0 7.0 0.00 0.02 0.00 61 1032.3
20180221214947 84 34 1.0 15.0 0.00 0.02 0.00 60 1032.4
20180221214448 84 22 8.0 15.0 0.00 0.02 0.00 58 1032.2
20180221213946 85 44 0.0 14.0 0.00 0.02 0.00 59 1032.4
20180221213445 85 345 8.0 15.0 0.00 0.02 0.00 58 1032.3
20180221212945 85 22 2.0 18.0 0.00 0.02 0.00 59 1032.2
20180221212442 85 346 12.0 18.0 0.00 0.02 0.00 61 1032.2
20180221211942 84 327 3.0 9.0 0.00 0.02 0.00 63 1032.2
20180221211442 84 15 3.0 11.0 0.00 0.02 0.00 62 1032.2
20180221210941 84 94 5.0 11.0 0.00 0.02 0.00 63 1032.3
20180221210441 83 96 0.0 10.0 0.00 0.02 0.00 63 1032.3
20180221205939 83 30 0.0 11.0 0.00 0.02 0.00 63 1032.3
20180221205438 83 88 0.0 14.0 0.00 0.02 0.00 64 1032.2
20180221204957 83 21 9.0 14.0 0.00 0.02 0.00 63 1032.2
20180221204440 84 322 4.0 11.0 0.00 0.02 0.00 63 1032.3
20180221203940 84 351 4.0 12.0 0.00 0.02 0.00 63 1032.2
20180221203439 85 11 9.0 12.0 0.00 0.02 0.00 63 1032.3
20180221202939 85 17 1.0 12.0 0.00 0.02 0.00 64 1032.4
20180221202438 85 333 8.0 12.0 0.00 0.02 0.00 64 1032.4
20180221201938 84 19 0.0 12.0 0.00 0.02 0.00 66 1032.4
20180221201438 83 35 5.0 11.0 0.00 0.02 0.00 67 1032.6
20180221200937 82 29 0.0 11.0 0.00 0.02 0.00 69 1032.8
20180221200458 83 38 6.0 11.0 0.00 0.02 0.00 67 1032.7
20180221195956 83 58 5.0 10.0 0.00 0.02 0.00 68 1032.8
20180221195456 83 32 1.0 8.0 0.00 0.02 0.00 67 1032.7
20180221194955 83 350 0.0 12.0 0.00 0.02 0.00 68 1032.9
20180221194453 83 19 1.0 12.0 0.00 0.02 0.00 67 1033.0
20180221193953 84 18 8.0 11.0 0.00 0.02 0.00 66 1033.1
20180221193455 83 37 0.0 11.0 0.00 0.02 0.00 65 1033.2
20180221192955 83 49 0.0 12.0 0.00 0.02 0.00 67 1033.1
20180221192455 84 22 5.0 15.0 0.00 0.02 0.00 66 1033.2
20180221191954 83 67 10.0 15.0 0.00 0.02 0.00 66 1033.1
20180221191453 83 325 6.0 11.0 0.00 0.02 0.00 67 1033.1
20180221190951 83 10 1.0 10.0 0.00 0.02 0.00 67 1033.1
20180221190451 83 32 7.0 10.0 0.00 0.02 0.00 67 1033.2
20180221185951 83 63 1.0 9.0 0.00 0.02 0.00 69 1033.3
20180221185450 83 78 0.0 0.0 0.00 0.02 0.00 72 1033.5
20180221184948 83 78 0.0 0.0 0.00 0.02 0.00 73 1033.6
20180221184447 82 349 0.0 3.0 0.00 0.02 0.00 73 1033.6
20180221183947 82 294 0.0 5.0 0.00 0.02 0.00 74 1033.7
20180221183447 83 331 2.0 8.0 0.00 0.02 0.00 73 1033.9
20180221182949 83 341 1.0 12.0 0.00 0.02 0.00 71 1033.9
20180221182448 83 327 0.0 12.0 0.00 0.02 0.00 75 1034.1
20180221181948 83 342 0.0 6.0 0.00 0.02 0.00 73 1034.2
20180221181447 83 5 4.0 7.0 0.00 0.02 0.00 73 1034.4
20180221180944 82 344 3.0 7.0 0.00 0.02 0.00 75 1034.4
20180221180443 82 331 0.0 7.0 0.00 0.02 0.00 75 1034.5
20180221175944 82 25 3.0 6.0 0.00 0.02 0.00 75 1034.7
20180221175442 81 85 1.0 2.0 0.00 0.02 0.00 76 1034.9
20180221174941 80 307 1.0 4.0 0.00 0.02 0.00 79 1034.8
20180221174441 79 337 0.0 5.0 0.00 0.02 0.00 80 1034.9
20180221173940 79 344 0.0 5.0 0.00 0.02 0.00 80 1035.0
20180221173440 79 40 1.0 5.0 0.00 0.02 0.00 81 1035.1
20180221172941 78 11 0.0 6.0 0.00 0.02 0.00 85 1035.3
20180221172443 77 33 1.0 8.0 0.00 0.02 0.00 86 1035.3
20180221171940 77 58 0.0 8.0 0.00 0.02 0.00 84 1035.5
20180221171439 77 5 0.0 9.0 0.00 0.02 0.00 85 1035.4
20180221170938 77 17 9.0 9.0 0.00 0.02 0.00 85 1035.4
20180221170458 76 330 0.0 5.0 0.00 0.02 0.00 88 1035.4
20180221165957 75 91 2.0 10.0 0.00 0.02 0.00 88 1035.6
20180221165456 75 350 0.0 10.0 0.00 0.02 0.00 88 1035.6
20180221164955 75 355 8.0 10.0 0.00 0.02 0.00 89 1035.7
20180221164456 75 24 5.0 7.0 0.00 0.02 0.00 89 1035.8
20180221163955 74 350 0.0 7.0 0.00 0.02 0.00 89 1035.8
20180221163453 74 17 2.0 6.0 0.00 0.02 0.00 90 1035.8
20180221162951 74 41 0.0 8.0 0.00 0.02 0.00 90 1035.9
20180221162451 74 34 0.0 8.0 0.00 0.02 0.00 91 1035.8
20180221161952 74 25 0.0 7.0 0.00 0.02 0.00 90 1035.8
20180221161456 74 15 0.0 8.0 0.00 0.02 0.00 91 1035.8
20180221160954 74 22 3.0 8.0 0.00 0.02 0.00 92 1035.8
20180221160453 73 105 0.0 9.0 0.00 0.02 0.00 92 1035.9
20180221155953 73 22 4.0 11.0 0.00 0.02 0.00 92 1035.9
20180221155453 73 18 4.0 10.0 0.00 0.02 0.00 93 1036.0
20180221154953 73 35 4.0 11.0 0.00 0.02 0.00 93 1035.9
20180221154452 73 22 5.0 11.0 0.00 0.02 0.00 93 1035.8
20180221153951 73 29 0.0 9.0 0.00 0.02 0.00 95 1035.9
20180221153450 72 34 7.0 9.0 0.00 0.02 0.00 95 1035.9
20180221152950 72 342 4.0 7.0 0.00 0.02 0.00 96 1035.8
20180221152449 72 355 0.0 7.0 0.00 0.02 0.00 96 1035.8
20180221151949 72 10 0.0 5.0 0.00 0.02 0.00 97 1035.8
20180221151448 72 355 0.0 4.0 0.00 0.02 0.00 97 1035.9
20180221150952 71 348 0.0 9.0 0.00 0.02 0.00 97 1035.7
20180221150451 71 25 1.0 9.0 0.00 0.02 0.00 98 1035.7
20180221145950 71 24 0.0 4.0 0.00 0.02 0.00 98 1035.8
20180221145449 70 345 0.0 6.0 0.00 0.02 0.00 98 1035.7
20180221144948 70 11 0.0 6.0 0.00 0.02 0.00 98 1035.8
20180221144448 70 360 0.0 6.0 0.00 0.02 0.00 98 1035.8
20180221143945 70 5 0.0 2.0 0.00 0.02 0.00 98 1035.8
20180221143446 70 22 0.0 5.0 0.00 0.02 0.00 98 1035.6
20180221142945 70 23 0.0 5.0 0.00 0.02 0.00 98 1035.6
20180221142445 70 39 0.0 5.0 0.00 0.02 0.00 98 1035.5
20180221141945 70 28 3.0 5.0 0.00 0.02 0.00 98 1035.5
20180221141444 69 338 0.0 5.0 0.00 0.02 0.00 98 1035.4
20180221140942 69 5 0.0 0.0 0.00 0.02 0.00 98 1035.3
20180221140445 69 339 0.0 5.0 0.00 0.02 0.00 98 1035.2
20180221135945 69 338 0.0 5.0 0.00 0.02 0.00 98 1035.2
20180221135443 69 339 0.0 1.0 0.00 0.02 0.00 98 1035.2
20180221134940 69 338 0.0 1.0 0.00 0.02 0.00 98 1035.2
20180221134438 69 339 0.0 0.0 0.00 0.02 0.00 98 1035.0
20180221133937 69 350 0.0 1.0 0.00 0.02 0.00 98 1035.0
20180221133458 68 351 0.0 4.0 0.00 0.02 0.00 98 1035.0
20180221132956 68 336 0.0 5.0 0.00 0.02 0.00 98 1034.9
20180221132455 68 341 0.0 4.0 0.00 0.02 0.00 98 1034.9
20180221131955 68 342 0.0 6.0 0.00 0.02 0.00 98 1034.9
20180221131454 68 336 2.0 6.0 0.00 0.02 0.00 98 1034.9
20180221130954 68 310 0.0 4.0 0.00 0.02 0.00 98 1034.8
20180221130454 68 332 0.0 4.0 0.00 0.02 0.00 98 1034.8
20180221125953 68 334 0.0 2.0 0.00 0.02 0.00 98 1034.8
20180221125457 68 331 0.0 1.0 0.00 0.02 0.00 98 1034.8
20180221124956 68 329 0.0 3.0 0.00 0.02 0.00 98 1034.8
20180221124455 68 329 0.0 3.0 0.00 0.02 0.00 98 1034.8
20180221123955 67 330 0.0 2.0 0.00 0.02 0.00 98 1034.9
20180221123454 67 330 0.0 2.0 0.00 0.02 0.00 98 1034.9
20180221122953 67 330 0.0 1.0 0.00 0.02 0.00 98 1034.9
20180221122453 67 330 0.0 1.0 0.00 0.02 0.00 98 1034.9
20180221121953 67 330 0.0 0.0 0.00 0.02 0.00 98 1034.9
20180221121452 67 330 0.0 0.0 0.00 0.02 0.00 98 1034.9
20180221120952 67 330 0.0 0.0 0.00 0.02 0.00 98 1034.9
20180221120452 67 330 0.0 2.0 0.00 0.02 0.00 98 1034.9
20180221115952 67 330 0.0 2.0 0.00 0.02 0.00 98 1034.9
20180221115450 67 330 0.0 0.0 0.00 0.02 0.00 98 1034.9
20180221114953 67 330 0.0 0.0 0.00 0.02 0.00 98 1034.8
20180221114452 67 330 0.0 0.0 0.00 0.02 0.00 98 1034.7
20180221113951 67 330 0.0 2.0 0.00 0.02 0.00 98 1034.7
20180221113450 67 330 0.0 2.0 0.00 0.02 0.00 98 1034.6
20180221112949 67 332 0.0 1.0 0.00 0.02 0.00 98 1034.5
20180221112447 67 345 0.0 0.0 0.00 0.02 0.00 98 1034.6
20180221111945 67 345 0.0 0.0 0.00 0.02 0.00 98 1034.5
20180221111445 67 345 0.0 0.0 0.00 0.02 0.00 98 1034.5
20180221110946 66 345 0.0 0.0 0.00 0.02 0.00 98 1034.4
20180221110444 66 345 0.0 0.0 0.00 0.02 0.00 98 1034.3
20180221105943 66 345 0.0 0.0 0.00 0.02 0.00 98 1034.3
20180221105443 66 345 0.0 0.0 0.00 0.02 0.00 98 1034.3
20180221104943 66 345 0.0 0.0 0.00 0.02 0.00 98 1034.2
20180221104446 66 345 0.0 0.0 0.00 0.02 0.00 98 1034.1
20180221103947 66 345 0.0 0.0 0.00 0.02 0.00 98 1034.1
20180221103446 66 345 0.0 0.0 0.00 0.02 0.00 98 1034.1
20180221102946 67 345 0.0 0.0 0.00 0.02 0.00 98 1034.2
20180221102445 67 345 0.0 0.0 0.00 0.02 0.00 98 1034.1
20180221101948 66 345 0.0 0.0 0.00 0.02 0.00 98 1034.1
20180221101444 66 345 0.0 0.0 0.00 0.02 0.00 98 1034.2
20180221100943 66 345 0.0 0.0 0.00 0.02 0.00 98 1034.2
20180221100439 66 345 0.0 0.0 0.00 0.02 0.00 98 1034.0
20180221095938 66 345 0.0 0.0 0.00 0.02 0.00 98 1034.0
20180221095438 66 345 0.0 0.0 0.00 0.02 0.00 97 1034.0
20180221094937 66 345 0.0 0.0 0.00 0.02 0.00 97 1034.1
20180221094456 66 346 0.0 0.0 0.00 0.02 0.00 97 1034.1
20180221093940 66 346 0.0 0.0 0.00 0.02 0.00 97 1034.1
20180221093440 66 346 0.0 0.0 0.00 0.02 0.00 97 1034.0
20180221092939 66 346 0.0 0.0 0.00 0.02 0.00 97 1034.0
20180221092438 67 346 0.0 0.0 0.00 0.02 0.00 97 1034.1
20180221091501 67 345 0.0 0.0 0.00 0.02 0.00 97 1034.0
20180221090946 67 346 0.0 0.0 0.00 0.02 0.00 97 1034.0
20180221090445 67 345 0.0 0.0 0.00 0.02 0.00 97 1034.0
20180221085941 67 346 0.0 0.0 0.00 0.02 0.00 97 1033.9